TimeEST,TemperatureF,Dew PointF,Humidity,Sea Level PressureIn,VisibilityMPH,Wind Direction,Wind SpeedMPH,Gust SpeedMPH,PrecipitationIn,Events,Conditions,WindDirDegrees,DateUTC
12:52 AM,55.0,50.0,83,30.44,10.0,SSE,5.8,-,N/A,,Clear,160,2012-11-12 05:52:00
1:52 AM,55.0,50.0,83,30.43,10.0,SE,4.6,-,N/A,,Clear,140,2012-11-12 06:52:00
2:52 AM,54.0,50.0,86,30.43,10.0,SE,3.5,-,N/A,,Clear,130,2012-11-12 07:52:00
3:52 AM,52.0,48.9,89,30.43,7.0,ESE,3.5,-,N/A,,Clear,120,2012-11-12 08:52:00
4:52 AM,55.0,50.0,83,30.42,10.0,SE,6.9,-,N/A,,Clear,140,2012-11-12 09:52:00
5:52 AM,55.0,51.1,86,30.42,10.0,SE,5.8,-,N/A,,Clear,140,2012-11-12 10:52:00
6:52 AM,55.9,52.0,87,30.41,10.0,SE,4.6,-,N/A,,Clear,140,2012-11-12 11:52:00
7:52 AM,57.9,54.0,87,30.41,10.0,ESE,5.8,-,N/A,,Clear,120,2012-11-12 12:52:00
8:52 AM,63.0,55.9,78,30.41,10.0,SSE,5.8,-,N/A,,Clear,150,2012-11-12 13:52:00
9:52 AM,60.1,54.0,80,30.40,10.0,ESE,8.1,-,N/A,,Clear,120,2012-11-12 14:52:00
10:52 AM,62.1,55.0,78,30.38,10.0,ESE,10.4,-,N/A,,Clear,120,2012-11-12 15:52:00
11:52 AM,64.9,55.0,70,30.35,10.0,ESE,12.7,-,N/A,,Clear,120,2012-11-12 16:52:00
12:52 PM,66.9,55.0,66,30.32,10.0,ESE,16.1,-,N/A,,Clear,120,2012-11-12 17:52:00
1:52 PM,66.0,55.0,68,30.30,10.0,ESE,11.5,19.6,N/A,,Clear,120,2012-11-12 18:52:00
2:52 PM,63.0,54.0,72,30.27,10.0,ESE,11.5,-,N/A,,Clear,120,2012-11-12 19:52:00
3:52 PM,64.0,54.0,70,30.25,10.0,SE,11.5,-,N/A,,Clear,130,2012-11-12 20:52:00
4:52 PM,63.0,54.0,72,30.23,10.0,ESE,11.5,23.0,N/A,,Clear,120,2012-11-12 21:52:00
5:52 PM,63.0,55.0,75,30.24,10.0,SE,6.9,-,N/A,,Clear,130,2012-11-12 22:52:00
6:52 PM,62.1,55.9,80,30.24,10.0,SE,9.2,-,N/A,,Clear,130,2012-11-12 23:52:00
7:52 PM,64.0,57.0,78,30.22,10.0,SE,11.5,18.4,N/A,,Partly Cloudy,140,2012-11-13 00:52:00
8:52 PM,64.9,57.9,78,30.20,10.0,SE,12.7,19.6,N/A,,Clear,140,2012-11-13 01:52:00
9:52 PM,64.9,57.9,78,30.20,10.0,SSE,11.5,-,N/A,,Clear,160,2012-11-13 02:52:00
10:52 PM,64.9,57.9,78,30.17,10.0,SSE,12.7,19.6,N/A,,Partly Cloudy,160,2012-11-13 03:52:00
11:52 PM,66.9,59.0,76,30.17,10.0,SSE,10.4,19.6,N/A,,Overcast,160,2012-11-13 04:52:00